EW8865 Weather Reports


time (UTC)temp
C
wind
direction
speed
KPH
gust
KPH
rain 1hr
cm
rain 24hr
cm
rain mn
cm
humidity
%
barometer
mb
20260504050504 11 104 1.6 3.2 0.00 0.20 0.00 91 1011.7
20260504050004 11 96 3.2 4.8 0.00 0.20 0.00 91 1011.7
20260504045504 11 88 3.2 4.8 0.00 0.20 0.00 91 1011.6
20260504045004 11 86 1.6 4.8 0.00 0.20 0.00 92 1011.6
20260504044504 11 89 0.0 0.0 0.00 0.20 0.00 92 1011.6
20260504044005 11 92 0.0 0.0 0.00 0.20 0.00 92 1011.5
20260504043003 11 89 0.0 0.0 0.00 0.20 0.00 92 1011.4
20260504042503 11 89 0.0 0.0 0.00 0.20 0.00 92 1011.4
20260504042004 11 89 0.0 0.0 0.00 0.20 0.00 92 1011.5
20260504041504 11 89 0.0 0.0 0.00 0.20 0.00 92 1011.6
20260504041004 11 89 0.0 0.0 0.00 0.20 0.00 92 1011.6
20260504040503 11 89 0.0 0.0 0.00 0.20 0.00 92 1011.5
20260504040003 11 89 0.0 0.0 0.00 0.20 0.00 92 1011.5
20260504034503 11 84 0.0 0.0 0.00 0.20 0.00 92 1011.4
20260504034004 11 82 0.0 0.0 0.00 0.20 0.00 92 1011.4
20260504033003 11 79 0.0 0.0 0.00 0.20 0.00 92 1011.4
20260504032003 11 79 0.0 0.0 0.00 0.20 0.00 92 1011.4
20260504031003 11 79 0.0 0.0 0.00 0.20 0.00 92 1011.4
20260504030004 11 79 0.0 0.0 0.00 0.20 0.00 92 1011.5
20260504025503 11 79 0.0 0.0 0.00 0.20 0.00 92 1011.5
20260504025004 11 79 0.0 0.0 0.00 0.20 0.00 92 1011.4
20260504024004 11 79 0.0 0.0 0.00 0.20 0.00 92 1011.4
20260504023504 11 79 0.0 0.0 0.00 0.20 0.00 92 1011.4
20260504022504 11 79 0.0 0.0 0.00 0.20 0.00 92 1011.4
20260504022003 11 79 0.0 0.0 0.00 0.20 0.00 92 1011.4
20260504021503 11 79 0.0 0.0 0.00 0.20 0.00 92 1011.4
20260504020504 11 79 0.0 0.0 0.00 0.20 0.00 92 1011.4
20260504020004 11 79 0.0 0.0 0.00 0.20 0.00 92 1011.3
20260504015504 11 79 0.0 0.0 0.00 0.20 0.00 92 1011.3
20260504015003 11 79 0.0 0.0 0.00 0.20 0.00 92 1011.3
20260504014504 11 79 0.0 0.0 0.00 0.20 0.00 92 1011.3
20260504013504 11 79 0.0 0.0 0.00 0.20 0.00 92 1011.3
20260504013003 11 79 0.0 0.0 0.00 0.20 0.00 92 1011.3
20260504012503 11 79 0.0 0.0 0.00 0.20 0.00 92 1011.3
20260504012003 11 79 0.0 0.0 0.00 0.20 0.00 92 1011.3
20260504011504 11 79 0.0 0.0 0.00 0.20 0.00 92 1011.3
20260504011005 11 79 0.0 0.0 0.00 0.20 0.00 92 1011.3
20260504010503 11 79 0.0 0.0 0.00 0.20 0.00 92 1011.3
20260504010004 11 79 0.0 0.0 0.00 0.20 0.00 92 1011.3
20260504005004 11 79 0.0 0.0 0.00 0.20 0.00 92 1011.3
20260504004504 11 79 0.0 0.0 0.00 0.20 0.00 92 1011.3
20260504004003 11 79 0.0 0.0 0.00 0.20 0.00 92 1011.3
20260504003504 11 79 0.0 0.0 0.00 0.20 0.00 92 1011.2
20260504003004 11 79 0.0 0.0 0.00 0.20 0.00 92 1011.2
20260504002503 11 79 0.0 0.0 0.00 0.20 0.00 92 1011.3
20260504001503 11 79 0.0 0.0 0.00 0.20 0.00 92 1011.3
20260504001004 11 79 0.0 0.0 0.00 0.20 0.00 92 1011.3
20260504000503 11 79 0.0 0.0 0.00 0.20 0.00 92 1011.4
20260504000004 11 79 0.0 0.0 0.00 0.20 0.00 92 1011.3
20260503235504 11 79 0.0 0.0 0.00 0.20 0.00 92 1011.3
20260503235004 10 79 0.0 0.0 0.00 0.20 0.00 92 1011.3
20260503234503 10 79 0.0 0.0 0.00 0.20 0.00 91 1011.2
20260503234004 10 79 0.0 0.0 0.00 0.20 0.00 91 1011.2
20260503233504 10 79 0.0 0.0 0.00 0.20 0.00 91 1011.2
20260503233003 10 79 0.0 0.0 0.00 0.20 0.00 91 1011.2
20260503232504 10 79 0.0 0.0 0.00 0.20 0.00 91 1011.2
20260503232003 10 79 0.0 0.0 0.00 0.20 0.00 90 1011.1
20260503231504 10 79 0.0 0.0 0.00 0.20 0.00 90 1011.0
20260503230004 10 79 0.0 0.0 0.00 0.20 0.00 90 1010.9
20260503225504 11 79 0.0 0.0 0.00 0.20 0.20 90 1010.9
20260503225004 11 79 0.0 0.0 0.00 0.20 0.20 90 1010.8
20260503224503 11 79 0.0 4.8 0.00 0.20 0.20 90 1010.8
20260503224003 11 79 1.6 3.2 0.00 0.20 0.20 90 1010.7
20260503223503 11 79 1.6 3.2 0.00 0.20 0.20 90 1010.7
20260503223004 11 79 0.0 0.0 0.00 0.20 0.20 90 1010.7
20260503222504 11 79 0.0 0.0 0.00 0.20 0.20 90 1010.6
20260503222004 11 79 0.0 0.0 0.00 0.20 0.20 90 1010.6
20260503221004 11 79 0.0 0.0 0.00 0.20 0.20 89 1010.6
20260503220505 11 79 0.0 0.0 0.00 0.20 0.20 89 1010.5
20260503220004 11 79 0.0 0.0 0.00 0.20 0.20 89 1010.5
20260503215005 11 79 0.0 0.0 0.00 0.20 0.20 89 1010.4
20260503214504 11 79 0.0 3.2 0.00 0.20 0.20 89 1010.4
20260503214003 12 79 1.6 4.8 0.00 0.20 0.20 89 1010.4
20260503213004 12 42 3.2 4.8 0.00 0.20 0.20 89 1010.3
20260503212003 12 5 1.6 4.8 0.00 0.20 0.20 88 1010.3
20260503211504 12 5 0.0 3.2 0.00 0.20 0.20 88 1010.2
20260503211003 12 5 1.6 3.2 0.00 0.20 0.20 88 1010.1
20260503210504 12 5 1.6 3.2 0.00 0.20 0.20 88 1010.1
20260503210004 12 5 0.0 1.6 0.00 0.20 0.20 89 1010.0
20260503205504 12 5 0.0 3.2 0.00 0.20 0.20 89 1010.0
20260503204003 12 5 3.2 4.8 0.00 0.20 0.20 89 1009.9
20260503203505 12 0 1.6 4.8 0.00 0.20 0.20 89 1009.9
20260503203004 12 0 1.6 4.8 0.00 0.20 0.20 89 1009.9
20260503202503 12 0 0.0 4.8 0.00 0.20 0.20 88 1009.9
20260503201504 12 0 1.6 4.8 0.00 0.20 0.20 88 1009.8
20260503201004 12 0 3.2 4.8 0.00 0.20 0.20 88 1009.8
20260503200503 12 0 1.6 4.8 0.00 0.20 0.20 88 1009.7
20260503195504 12 0 0.0 1.6 0.00 0.20 0.20 87 1009.6
20260503193503 13 358 0.0 3.2 0.00 0.23 0.20 87 1009.4
20260503193003 13 354 1.6 3.2 0.00 0.23 0.20 87 1009.4
20260503191004 13 61 3.2 4.8 0.00 0.23 0.20 87 1009.2
20260503190504 13 61 0.0 3.2 0.00 0.23 0.20 87 1009.2
20260503190004 13 61 1.6 4.8 0.00 0.23 0.20 87 1009.2
20260503185003 13 61 1.6 4.8 0.05 0.25 0.20 86 1009.1
20260503183004 13 52 1.6 4.8 0.20 0.30 0.20 86 1009.0
20260503182503 13 54 3.2 4.8 0.20 0.30 0.20 86 1008.9
20260503182005 13 28 3.2 4.8 0.20 0.30 0.20 85 1008.9
20260503180504 13 353 4.8 8.0 0.20 0.33 0.20 83 1008.8
20260503180004 14 350 4.8 9.7 0.20 0.33 0.20 81 1008.8
20260503171004 16 0 6.4 14.5 0.00 0.25 0.00 72 1008.6
20260503170503 16 356 3.2 12.9 0.00 0.30 0.00 73 1008.6
20260503151004 18 139 6.4 19.3 0.00 1.07 0.00 59 1008.4
20260503131004 18 159 8.0 16.1 0.00 1.09 0.00 67 1008.8
20260503130503 17 158 9.7 16.1 0.00 1.09 0.00 67 1008.8
20260503090503 15 122 3.2 4.8 0.00 1.09 0.00 78 1009.3
20260503081504 12 267 0.0 4.8 0.00 1.09 0.00 94 1009.3
20260503081004 12 270 3.2 4.8 0.00 1.09 0.00 94 1009.3
20260503080504 11 271 1.6 4.8 0.00 1.09 0.00 94 1009.2
20260503072504 10 294 0.0 3.2 0.00 1.09 0.00 94 1009.3
20260503072004 10 294 0.0 3.2 0.00 1.09 0.00 94 1009.3
20260503071504 10 294 1.6 4.8 0.00 1.09 0.00 94 1009.3
20260503071004 10 294 0.0 3.2 0.00 1.09 0.00 94 1009.3
20260503070503 10 295 0.0 1.6 0.00 1.09 0.00 94 1009.4